| time (UTC) | temp C | wind direction | speed KPH | gust KPH | rain 1hr cm | rain 24hr cm | rain mn cm | humidity % | barometer mb |
| 20260505091543 | 6 | 260 | 9.7 | 25.7 | 0.00 | 0.79 | 0.00 | 81 | 1008.6 |
| 20260505090034 | 6 | 223 | 3.2 | 19.3 | 0.00 | 0.79 | 0.00 | 81 | 1008.4 |
| 20260505084535 | 6 | 229 | 4.8 | 14.5 | 0.00 | 0.81 | 0.00 | 80 | 1008.2 |
| 20260505083035 | 7 | 225 | 8.0 | 24.1 | 0.00 | 0.81 | 0.00 | 79 | 1008.0 |
| 20260505081537 | 7 | 265 | 14.5 | 35.4 | 0.00 | 0.81 | 0.00 | 80 | 1007.8 |
| 20260505080038 | 7 | 244 | 14.5 | 32.2 | 0.00 | 0.81 | 0.00 | 79 | 1007.5 |
| 20260505074537 | 7 | 227 | 16.1 | 29.0 | 0.00 | 0.84 | 0.00 | 79 | 1007.4 |
| 20260505073036 | 7 | 221 | 11.3 | 35.4 | 0.00 | 0.84 | 0.00 | 79 | 1007.3 |
| 20260505071541 | 7 | 233 | 19.3 | 35.4 | 0.00 | 0.84 | 0.00 | 79 | 1006.8 |
| 20260505070038 | 7 | 238 | 24.1 | 49.9 | 0.00 | 0.84 | 0.00 | 78 | 1006.6 |
| 20260505064536 | 7 | 260 | 16.1 | 41.8 | 0.00 | 0.94 | 0.00 | 78 | 1006.4 |
| 20260505063044 | 7 | 221 | 14.5 | 33.8 | 0.00 | 0.94 | 0.00 | 79 | 1006.2 |
| 20260505061603 | 7 | 238 | 16.1 | 32.2 | 0.00 | 0.94 | 0.00 | 78 | 1005.9 |
| 20260505060044 | 8 | 238 | 22.5 | 45.1 | 0.00 | 0.94 | 0.00 | 78 | 1005.6 |
| 20260505054544 | 8 | 226 | 17.7 | 41.8 | 0.00 | 0.94 | 0.00 | 78 | 1005.4 |
| 20260505053046 | 7 | 271 | 19.3 | 40.2 | 0.00 | 0.94 | 0.00 | 78 | 1005.1 |
| 20260505051605 | 8 | 269 | 17.7 | 37.0 | 0.00 | 0.94 | 0.00 | 78 | 1004.9 |
| 20260505041540 | 8 | 269 | 14.5 | 29.0 | 0.00 | 0.97 | 0.00 | 79 | 1004.3 |
| 20260505040037 | 8 | 253 | 12.9 | 24.1 | 0.00 | 0.97 | 0.00 | 79 | 1004.3 |
| 20260505034541 | 8 | 284 | 11.3 | 27.4 | 0.00 | 0.97 | 0.00 | 79 | 1004.3 |
| 20260505033034 | 8 | 280 | 17.7 | 32.2 | 0.00 | 0.97 | 0.00 | 80 | 1004.0 |
| 20260505031541 | 7 | 223 | 19.3 | 46.7 | 0.00 | 0.97 | 0.00 | 79 | 1003.6 |
| 20260505030049 | 8 | 229 | 22.5 | 35.4 | 0.00 | 0.97 | 0.00 | 77 | 1003.4 |
| 20260505024539 | 8 | 266 | 16.1 | 32.2 | 0.00 | 0.99 | 0.97 | 75 | 1003.3 |
| 20260505023036 | 8 | 232 | 16.1 | 38.6 | 0.00 | 0.99 | 0.97 | 73 | 1003.2 |
| 20260505021534 | 9 | 244 | 19.3 | 32.2 | 0.00 | 0.99 | 0.97 | 71 | 1003.2 |
| 20260505020035 | 8 | 240 | 11.3 | 24.1 | 0.00 | 0.99 | 0.97 | 70 | 1003.1 |
| 20260505014532 | 9 | 217 | 14.5 | 41.8 | 0.00 | 1.30 | 0.97 | 69 | 1002.6 |
| 20260505013032 | 9 | 227 | 24.1 | 45.1 | 0.00 | 1.30 | 0.97 | 67 | 1002.4 |
| 20260505011537 | 8 | 197 | 22.5 | 33.8 | 0.00 | 1.30 | 0.97 | 68 | 1002.3 |
| 20260505010037 | 8 | 218 | 12.9 | 27.4 | 0.00 | 1.30 | 0.97 | 67 | 1002.1 |
| 20260505004535 | 8 | 217 | 14.5 | 29.0 | 0.00 | 1.91 | 0.97 | 66 | 1002.2 |
| 20260505003035 | 8 | 182 | 11.3 | 24.1 | 0.00 | 1.91 | 0.97 | 68 | 1002.0 |
| 20260505001535 | 8 | 216 | 12.9 | 27.4 | 0.00 | 1.91 | 0.97 | 67 | 1002.1 |
| 20260505000038 | 8 | 215 | 9.7 | 27.4 | 0.00 | 1.91 | 0.97 | 66 | 1001.7 |
| 20260504234536 | 8 | 203 | 9.7 | 20.9 | 0.00 | 2.24 | 0.97 | 65 | 1001.5 |
| 20260504233038 | 9 | 212 | 4.8 | 27.4 | 0.00 | 2.24 | 0.97 | 61 | 1001.1 |
| 20260504231541 | 8 | 221 | 8.0 | 20.9 | 0.00 | 2.24 | 0.97 | 61 | 1000.8 |
| 20260504230046 | 9 | 277 | 9.7 | 27.4 | 0.00 | 2.24 | 0.97 | 59 | 1000.6 |
| 20260504224533 | 9 | 178 | 11.3 | 19.3 | 0.00 | 2.82 | 0.97 | 60 | 1000.5 |
| 20260504223034 | 10 | 259 | 8.0 | 45.1 | 0.00 | 2.82 | 0.97 | 61 | 1000.4 |
| 20260504221535 | 10 | 231 | 11.3 | 32.2 | 0.00 | 2.82 | 0.97 | 62 | 1000.1 |
| 20260504220035 | 10 | 223 | 17.7 | 29.0 | 0.00 | 2.82 | 0.97 | 62 | 999.9 |
| 20260504214534 | 10 | 222 | 11.3 | 25.7 | 0.00 | 3.02 | 0.97 | 63 | 999.7 |
| 20260504213035 | 10 | 226 | 22.5 | 56.3 | 0.00 | 3.02 | 0.97 | 62 | 999.5 |
| 20260504211538 | 10 | 212 | 25.7 | 56.3 | 0.00 | 3.02 | 0.97 | 62 | 999.4 |
| 20260504210040 | 10 | 329 | 25.7 | 57.9 | 0.00 | 3.02 | 0.97 | 63 | 999.2 |
| 20260504204538 | 10 | 287 | 20.9 | 53.1 | 0.00 | 3.17 | 0.97 | 62 | 998.9 |
| 20260504203051 | 10 | 254 | 29.0 | 64.4 | 0.00 | 3.17 | 0.97 | 63 | 998.9 |
| 20260504201542 | 10 | 259 | 29.0 | 54.7 | 0.00 | 3.17 | 0.97 | 63 | 998.7 |
| 20260504200042 | 10 | 234 | 32.2 | 62.8 | 0.00 | 3.17 | 0.97 | 63 | 998.2 |
| 20260504194541 | 10 | 261 | 33.8 | 75.6 | 0.00 | 3.38 | 0.97 | 66 | 997.8 |
| 20260504193041 | 10 | 261 | 30.6 | 62.8 | 0.00 | 3.38 | 0.97 | 68 | 997.5 |
| 20260504191535 | 10 | 248 | 22.5 | 49.9 | 0.00 | 3.38 | 0.97 | 69 | 997.3 |
| 20260504190050 | 10 | 238 | 29.0 | 64.4 | 0.00 | 3.38 | 0.97 | 70 | 997.0 |
| 20260504184536 | 10 | 284 | 24.1 | 54.7 | 0.00 | 3.38 | 0.97 | 72 | 996.6 |
| 20260504183041 | 10 | 284 | 20.9 | 54.7 | 0.00 | 3.38 | 0.97 | 74 | 996.4 |
| 20260504181543 | 8 | 292 | 29.0 | 66.0 | 0.00 | 3.38 | 0.97 | 76 | 996.0 |
| 20260504180041 | 9 | 269 | 27.4 | 69.2 | 0.00 | 3.38 | 0.97 | 76 | 995.8 |
| 20260504174536 | 8 | 309 | 27.4 | 56.3 | 0.00 | 3.38 | 0.97 | 79 | 995.5 |
| 20260504173035 | 8 | 288 | 30.6 | 61.2 | 0.00 | 3.38 | 0.97 | 80 | 995.6 |
| 20260504171543 | 8 | 271 | 29.0 | 59.5 | 0.00 | 3.38 | 0.97 | 81 | 995.0 |